FW3054 Weather Reports


time (UTC)temp
C
wind
direction
speed
KPH
gust
KPH
rain 1hr
cm
rain 24hr
cm
rain mn
cm
humidity
%
barometer
mb
20260510182521 26 23 3.2 8.0 0.00 0.00 0.00 35 1018.0
20260510181520 25 23 3.2 8.0 0.00 0.00 0.00 35 1018.0
20260510180520 26 23 3.2 8.0 0.00 0.00 0.00 34 1018.3
20260510175520 26 45 1.6 4.8 0.00 0.00 0.00 35 1018.5
20260510174520 26 23 1.6 4.8 0.00 0.00 0.00 36 1018.6
20260510173520 26 0.0 3.2 0.00 0.00 0.00 35 1018.6
20260510172520 25 23 1.6 3.2 0.00 0.00 0.00 36 1018.5
20260510171545 25 0 1.6 6.4 0.00 0.00 0.00 36 1018.8
20260510170520 25 0 1.6 6.4 0.00 0.00 0.00 35 1018.8
20260510165520 25 0.0 3.2 0.00 0.00 0.00 37 1018.8
20260510164520 25 0 1.6 4.8 0.00 0.00 0.00 37 1019.0
20260510163520 25 0.0 3.2 0.00 0.00 0.00 38 1019.0
20260510162545 25 0.0 3.2 0.00 0.00 0.00 37 1019.1
20260510161520 23 23 1.6 4.8 0.00 0.00 0.00 38 1019.0
20260510160545 23 23 1.6 6.4 0.00 0.00 0.00 39 1019.2
20260510155520 22 23 1.6 6.4 0.00 0.00 0.00 43 1019.1
20260510154520 22 0 1.6 4.8 0.00 0.00 0.00 44 1019.1
20260510153520 21 0 1.6 3.2 0.00 0.00 0.00 47 1019.3
20260510152520 21 23 3.2 6.4 0.00 0.00 0.00 46 1019.0
20260510151520 20 0 1.6 4.8 0.00 0.00 0.00 50 1019.0
20260510150522 20 0 3.2 11.3 0.00 0.00 0.00 53 1019.1
20260510145522 20 0.0 3.2 0.00 0.00 0.00 58 1019.3
20260510144522 19 0.0 3.2 0.00 0.00 0.00 68 1019.3
20260510143522 18 0.0 0.0 0.00 0.00 0.00 73 1019.3
20260510142520 18 0.0 0.0 0.00 0.00 0.00 76 1019.2
20260510141547 17 0.0 0.0 0.00 0.00 0.00 79 1019.0
20260510140522 16 0.0 3.2 0.00 0.00 0.00 80 1019.0
20260510135522 16 0 1.6 3.2 0.00 0.00 0.00 82 1019.0
20260510134522 15 0.0 0.0 0.00 0.00 0.00 84 1018.9
20260510133522 15 0.0 0.0 0.00 0.00 0.00 85 1018.9
20260510132522 14 0.0 3.2 0.00 0.00 0.00 86 1018.8
20260510131522 13 0.0 0.0 0.00 0.00 0.00 87 1018.7
20260510130522 13 0.0 0.0 0.00 0.00 0.00 87 1018.7
20260510125522 13 0.0 0.0 0.00 0.00 0.00 87 1018.6
20260510124522 12 0.0 0.0 0.00 0.00 0.00 88 1018.5
20260510123522 12 0.0 1.6 0.00 0.00 0.00 88 1018.5
20260510122522 12 0.0 1.6 0.00 0.00 0.00 89 1018.4
20260510121522 11 0.0 0.0 0.00 0.00 0.00 89 1018.3
20260510120522 11 0.0 1.6 0.00 0.00 0.00 90 1018.3
20260510115522 11 0.0 1.6 0.00 0.00 0.00 90 1018.1
20260510114522 11 0.0 0.0 0.00 0.00 0.00 90 1017.9
20260510113522 10 0.0 0.0 0.00 0.00 0.00 89 1017.7
20260510112547 10 0.0 0.0 0.00 0.00 0.00 89 1017.4
20260510111522 10 0.0 0.0 0.00 0.00 0.00 89 1017.4
20260510110522 10 0.0 0.0 0.00 0.00 0.00 90 1017.0
20260510105522 10 0.0 0.0 0.00 0.00 0.00 90 1016.9
20260510104522 10 0.0 0.0 0.00 0.00 0.00 90 1016.9
20260510103522 10 0.0 0.0 0.00 0.00 0.00 90 1016.6
20260510102522 10 0.0 0.0 0.00 0.00 0.00 90 1016.4
20260510101522 10 0.0 0.0 0.00 0.00 0.00 90 1016.6
20260510100522 10 0.0 0.0 0.00 0.00 0.00 90 1016.4
20260510095521 10 0.0 0.0 0.00 0.00 0.00 90 1016.3
20260510094522 10 0.0 0.0 0.00 0.00 0.00 90 1016.4
20260510093522 10 0.0 0.0 0.00 0.00 0.00 90 1016.2
20260510092522 10 0.0 0.0 0.00 0.00 0.00 90 1016.1
20260510091522 10 0.0 0.0 0.00 0.00 0.00 90 1016.0
20260510090521 10 0.0 0.0 0.00 0.00 0.00 90 1016.0
20260510085547 10 0.0 0.0 0.00 0.00 0.00 89 1015.9
20260510084612 10 0.0 0.0 0.00 0.00 0.00 89 1015.8
20260510083522 10 0.0 0.0 0.00 0.00 0.00 89 1015.7
20260510082547 10 0.0 0.0 0.00 0.00 0.00 89 1015.6
20260510081522 10 0.0 0.0 0.00 0.00 0.00 89 1015.8
20260510080521 11 0.0 0.0 0.00 0.00 0.00 89 1015.5
20260510075522 11 0.0 0.0 0.00 0.00 0.00 88 1015.4
20260510074522 11 0.0 0.0 0.00 0.00 0.00 88 1015.4
20260510073522 11 0.0 0.0 0.00 0.00 0.00 88 1015.5
20260510072521 11 0.0 0.0 0.00 0.00 0.00 87 1015.3
20260510071521 11 0.0 0.0 0.00 0.00 0.00 87 1015.4
20260510070546 12 0.0 0.0 0.00 0.00 0.00 87 1015.4
20260510065521 12 0.0 0.0 0.00 0.00 0.00 87 1015.4
20260510064547 12 0.0 0.0 0.00 0.00 0.00 87 1015.7
20260510063521 12 0.0 0.0 0.00 0.00 0.00 87 1015.5
20260510062522 12 0.0 0.0 0.00 0.00 0.00 87 1015.4
20260510061522 12 0.0 0.0 0.00 0.00 0.00 86 1015.9
20260510060521 12 0.0 0.0 0.00 0.00 0.00 85 1016.0
20260510055521 12 0.0 0.0 0.00 0.00 0.00 85 1016.2
20260510054546 12 0.0 0.0 0.00 0.00 0.00 85 1015.8
20260510053521 12 0.0 0.0 0.00 0.00 0.00 85 1015.8
20260510052521 12 0.0 0.0 0.00 0.00 0.00 84 1015.9
20260510051521 13 0.0 0.0 0.00 0.00 0.00 84 1015.9
20260510050521 13 0.0 0.0 0.00 0.00 0.00 84 1015.8
20260510045521 13 0.0 0.0 0.00 0.00 0.00 83 1015.6
20260510044521 13 0.0 0.0 0.00 0.00 0.00 83 1015.6
20260510043521 13 0.0 0.0 0.00 0.00 0.00 82 1015.4
20260510042521 13 0.0 0.0 0.00 0.00 0.00 81 1015.5
20260510041612 14 0.0 0.0 0.00 0.00 0.00 81 1015.4
20260510040521 14 0.0 1.6 0.00 0.00 0.00 80 1015.3
20260510035521 14 0.0 0.0 0.00 0.00 0.00 79 1015.1
20260510034521 14 0.0 0.0 0.00 0.00 0.00 79 1014.9
20260510033521 15 0.0 0.0 0.00 0.00 0.00 78 1015.2
20260510032521 15 0.0 0.0 0.00 0.00 0.00 78 1015.3
20260510031521 15 0.0 0.0 0.00 0.00 0.00 78 1014.9
20260510030521 15 0.0 0.0 0.00 0.00 0.00 77 1015.0
20260510025521 15 0.0 0.0 0.00 0.00 0.00 76 1015.2
20260510024521 15 0.0 0.0 0.00 0.00 0.00 75 1014.8
20260510023521 16 0.0 0.0 0.00 0.00 0.00 74 1014.9
20260510022521 16 0.0 0.0 0.00 0.00 0.00 73 1014.9
20260510021611 16 0.0 0.0 0.00 0.00 0.00 73 1014.4
20260510020521 16 0.0 0.0 0.00 0.00 0.00 72 1014.3
20260510015521 16 0.0 0.0 0.00 0.00 0.00 71 1014.1
20260510014521 16 0.0 0.0 0.00 0.00 0.00 70 1013.7
20260510013521 16 0.0 0.0 0.00 0.00 0.00 69 1013.5
20260510012521 16 0.0 0.0 0.00 0.00 0.00 69 1013.3
20260510011546 17 0.0 0.0 0.00 0.00 0.00 68 1013.0
20260510010546 17 0.0 0.0 0.00 0.00 0.00 68 1012.9
20260510005521 17 0.0 1.6 0.00 0.00 0.00 67 1012.9
20260510004521 17 0.0 1.6 0.00 0.00 0.00 66 1012.8
20260510003521 18 0.0 1.6 0.00 0.00 0.00 64 1012.7
20260510002546 18 0.0 1.6 0.00 0.00 0.00 64 1012.7
20260510001521 18 0.0 0.0 0.00 0.00 0.00 63 1012.1
20260510000546 19 0.0 0.0 0.00 0.00 0.00 62 1012.1
20260509235521 19 0.0 4.8 0.00 0.00 0.00 59 1011.8
20260509234521 20 0.0 0.0 0.00 0.00 0.00 59 1011.8
20260509233521 20 0.0 0.0 0.00 0.00 0.00 58 1011.6
20260509232521 20 0.0 0.0 0.00 0.00 0.00 61 1011.7
20260509231521 20 0.0 1.6 0.00 0.00 0.00 58 1011.3
20260509230521 20 0.0 1.6 0.00 0.00 0.00 58 1011.3
20260509225521 20 0.0 3.2 0.00 0.00 0.00 59 1011.3
20260509224521 21 23 1.6 6.4 0.00 0.00 0.00 57 1011.4
20260509223521 21 0.0 4.8 0.00 0.00 0.00 58 1011.5
20260509222546 21 0.0 3.2 0.00 0.00 0.00 58 1011.4
20260509221521 21 0.0 3.2 0.00 0.00 0.00 57 1011.4
20260509220521 21 23 3.2 8.0 0.00 0.00 0.00 56 1011.4
20260509215520 22 0 1.6 6.4 0.00 0.00 0.00 55 1011.1
20260509214521 22 0.0 1.6 0.00 0.00 0.00 54 1010.9
20260509213521 22 0 1.6 4.8 0.00 0.00 0.00 52 1010.7
20260509212521 23 23 1.6 4.8 0.00 0.00 0.00 52 1010.6
20260509211521 23 0.0 1.6 0.00 0.00 0.00 54 1010.7
20260509210546 23 23 3.2 9.7 0.00 0.00 0.00 52 1010.7
20260509205521 23 0.0 4.8 0.00 0.00 0.00 53 1010.8
20260509204521 23 23 1.6 3.2 0.00 0.00 0.00 54 1010.8
20260509203520 23 23 1.6 4.8 0.00 0.00 0.00 53 1010.8
20260509202521 23 23 1.6 3.2 0.00 0.00 0.00 53 1010.7
20260509201521 23 23 1.6 8.0 0.00 0.00 0.00 51 1010.9
20260509200521 23 23 1.6 6.4 0.00 0.00 0.00 51 1010.8
20260509195546 23 0 1.6 3.2 0.00 0.00 0.00 52 1010.7
20260509194521 23 23 1.6 6.4 0.00 0.00 0.00 53 1010.8
20260509193520 23 23 1.6 6.4 0.00 0.00 0.00 50 1011.0
20260509192521 24 0.0 3.2 0.00 0.00 0.00 51 1011.4
20260509191520 24 0.0 3.2 0.00 0.00 0.00 54 1011.4
20260509190520 24 23 1.6 4.8 0.00 0.00 0.00 47 1011.1
20260509185520 25 0 1.6 4.8 0.00 0.00 0.00 47 1011.2
20260509184546 25 0 1.6 4.8 0.00 0.00 0.00 44 1011.1
20260509183521 26 0.0 1.6 0.00 0.00 0.00 47 1011.4